DW5247 Lemo FI current weather conditions

sailwx.info

Wind from 045 at 3 knots gusting 5

Air temperature 3.3° C
Dewpoint 2.0° C

Last reported at 2020-Feb-19 01:02 UTC.
Time now 2020-Feb-19 01:44 UTC

Location: N 62°41' E 029°49'.
View on Google Maps.

See reports from other nearby stations

  
Tides and Currents Weather Stations Pressure Air Temp Water Temp Dewpoint Dewpoint Depression Visibility Wind Speed Wind Dir Waves Ship Positions
date/time (UTC)wind fromknots sea level pressurealtimeterstation pressurevisibilityair tempwater tempwave heightnotes
2020-Feb-19 01:02 045 3 gusting 5 3.3
2020-Feb-19 00:57 338 3 gusting 4 3.3
2020-Feb-19 00:52 203 3 gusting 4 3.3
2020-Feb-19 00:47 3.3
2020-Feb-19 00:42 023 3 gusting 5 3.3
2020-Feb-19 00:37 338 3 gusting 5 3.3
2020-Feb-19 00:32 023 3 gusting 5 3.3
2020-Feb-19 00:27 3.3
2020-Feb-19 00:22 023 3 gusting 4 3.3
2020-Feb-19 00:17 023 2 gusting 7 3.3
2020-Feb-19 00:12 338 3 gusting 7 3.3
2020-Feb-19 00:07 338 3 gusting 5 3.3
2020-Feb-19 00:02 023 3 gusting 5 3.3
2020-Feb-18 23:57 023 3 gusting 4 3.3
2020-Feb-18 23:52 3.3
2020-Feb-18 23:47 3.3
2020-Feb-18 23:42 023 3 gusting 3 3.3
2020-Feb-18 23:37 023 3 gusting 3 3.3
2020-Feb-18 23:27 338 2 gusting 3 3.3
2020-Feb-18 23:22 023 2 gusting 4 3.3
2020-Feb-18 23:17 3.3
2020-Feb-18 23:12 338 2 gusting 5 3.3
2020-Feb-18 23:07 3.3
2020-Feb-18 23:02 023 2 gusting 5 3.3
2020-Feb-18 22:57 338 3 gusting 4 3.3
2020-Feb-18 22:52 338 2 gusting 3 3.3
2020-Feb-18 22:47 023 2 gusting 3 3.3
2020-Feb-18 22:42 3.3
2020-Feb-18 22:37 338 2 gusting 5 3.3
2020-Feb-18 22:32 023 2 gusting 6 3.3
2020-Feb-18 22:06 338 2 gusting 3 2.8
2020-Feb-18 21:57 023 2 gusting 3 2.8
2020-Feb-18 21:52 2.8
2020-Feb-18 21:47 338 1 gusting 2 2.8
2020-Feb-18 21:42 338 1 gusting 3 2.8
2020-Feb-18 21:27 2.8
2020-Feb-18 21:22 338 1 gusting 4 2.8
2020-Feb-18 21:17 2.8
2020-Feb-18 21:12 158 1 gusting 4 2.8
2020-Feb-18 21:07 338 1 gusting 3 2.8
2020-Feb-18 21:02 2.8
2020-Feb-18 20:57 023 0 gusting 3 2.8
2020-Feb-18 20:47 338 1 gusting 4 2.8
2020-Feb-18 20:42 023 2 gusting 4 2.8
2020-Feb-18 20:37 023 2 gusting 4 2.8
2020-Feb-18 20:32 2.8
2020-Feb-18 20:27 023 2 gusting 3 2.8
2020-Feb-18 20:17 2.8
2020-Feb-18 20:12 2.8
2020-Feb-18 20:07 023 2 gusting 6 2.8
2020-Feb-18 20:02 2.8
2020-Feb-18 19:57 2.8
2020-Feb-18 19:52 023 3 gusting 5 2.8
2020-Feb-18 19:47 045 3 gusting 5 2.8
2020-Feb-18 19:42 023 2 gusting 7 2.8
2020-Feb-18 19:37 315 3 gusting 7 2.8
2020-Feb-18 19:32 2.8
2020-Feb-18 19:27 2.8
2020-Feb-18 19:22 023 2 gusting 5 2.8
2020-Feb-18 19:17 045 2 gusting 4 2.8
2020-Feb-18 19:12 023 2 gusting 3 2.8
2020-Feb-18 19:07 023 2 gusting 3 2.8
2020-Feb-18 19:02 023 1 gusting 3 2.8
2020-Feb-18 18:57 045 2 gusting 3 2.8
2020-Feb-18 18:52 293 1 gusting 4 2.8
2020-Feb-18 18:47 045 1 gusting 4 2.8
2020-Feb-18 18:42 2.8
2020-Feb-18 18:37 023 2 gusting 4 2.8
2020-Feb-18 18:32 045 2 gusting 4 2.8
2020-Feb-18 18:27 315 2 gusting 4 2.8
2020-Feb-18 18:22 338 2 gusting 4 2.8
2020-Feb-18 18:17 338 2 gusting 4 2.8
2020-Feb-18 18:12 338 2 gusting 3 2.8
2020-Feb-18 18:07 023 2 gusting 3 2.8
2020-Feb-18 18:02 338 2 gusting 3 2.8
2020-Feb-18 17:57 023 2 gusting 4 2.8
2020-Feb-18 17:52 315 2 gusting 4 3.3
2020-Feb-18 17:47 338 2 gusting 4 3.3
2020-Feb-18 17:42 338 2 gusting 4 3.3
2020-Feb-18 17:37 338 2 gusting 4 3.3
2020-Feb-18 17:32 023 2 gusting 3 3.3
2020-Feb-18 17:27 338 2 gusting 3 3.3
2020-Feb-18 17:22 315 2 gusting 3 3.3
2020-Feb-18 17:17 023 2 gusting 3 3.3
2020-Feb-18 17:12 3.3
2020-Feb-18 17:07 023 2 gusting 3 3.3
2020-Feb-18 17:02 023 2 gusting 5 3.3
2020-Feb-18 16:57 338 2 gusting 5 3.3
2020-Feb-18 16:52 023 2 gusting 5 3.3
2020-Feb-18 16:47 023 2 gusting 4 3.3
2020-Feb-18 16:42 023 2 gusting 4 3.3
2020-Feb-18 16:37 023 2 gusting 4 3.3
2020-Feb-18 16:32 338 2 gusting 4 3.3
2020-Feb-18 16:27 023 2 gusting 4 3.3
2020-Feb-18 16:22 3.9
2020-Feb-18 16:17 3.9
2020-Feb-18 16:12 045 1 gusting 6 3.9
2020-Feb-18 16:07 338 1 gusting 6 3.9
2020-Feb-18 15:57 338 3 gusting 5 3.9
2020-Feb-18 15:52 045 2 gusting 5 4.4
2020-Feb-18 15:47 023 3 gusting 5 4.4
2020-Feb-18 15:42 023 3 gusting 6 4.4
2020-Feb-18 15:37 315 4 gusting 6 4.4
2020-Feb-18 15:32 4.4
2020-Feb-18 15:22 023 4 gusting 9 4.4
2020-Feb-18 15:17 023 5 gusting 9 4.4
2020-Feb-18 15:12 4.4
2020-Feb-18 15:07 023 5 gusting 6 4.4
2020-Feb-18 14:57 023 4 gusting 6 5.0
2020-Feb-18 14:52 023 4 gusting 6 5.0
2020-Feb-18 14:47 315 4 gusting 6 5.0
2020-Feb-18 14:37 5.0
2020-Feb-18 14:32 5.0
2020-Feb-18 14:27 068 2 gusting 5 5.0
2020-Feb-18 14:22 315 3 gusting 6 5.0
2020-Feb-18 14:17 338 3 gusting 6 5.0
2020-Feb-18 14:12 5.6
2020-Feb-18 14:07 023 3 gusting 5 5.6
2020-Feb-18 14:02 045 3 gusting 7 5.6
2020-Feb-18 13:57 338 3 gusting 7 5.6
2020-Feb-18 13:52 5.6
2020-Feb-18 13:47 023 3 gusting 5 5.6
2020-Feb-18 13:42 023 3 gusting 5 5.6
2020-Feb-18 13:37 315 3 gusting 5 5.6
2020-Feb-18 13:32 338 3 gusting 6 5.6
2020-Feb-18 13:27 023 3 gusting 6 5.6
2020-Feb-18 13:22 315 2 gusting 5 5.6
2020-Feb-18 13:17 023 2 gusting 5 5.6
2020-Feb-18 13:12 023 2 gusting 6 5.6
2020-Feb-18 13:07 5.6
2020-Feb-18 13:02 023 3 gusting 6 5.6
2020-Feb-18 12:57 068 4 gusting 6 5.6
2020-Feb-18 12:52 023 3 gusting 6 5.6
2020-Feb-18 12:47 023 3 gusting 6 5.6
2020-Feb-18 12:42 068 3 gusting 7 5.6
2020-Feb-18 12:37 023 3 gusting 7 6.1
2020-Feb-18 12:32 270 4 gusting 9 6.1
2020-Feb-18 12:27 023 4 gusting 9 6.1
2020-Feb-18 12:22 068 4 gusting 6 6.1
2020-Feb-18 12:17 023 4 gusting 6 6.1
2020-Feb-18 12:12 045 4 gusting 9 6.1
2020-Feb-18 12:07 113 4 gusting 9 5.6
2020-Feb-18 12:02 023 3 gusting 10 5.6
2020-Feb-18 11:57 045 4 gusting 10 5.6
2020-Feb-18 11:52 023 3 gusting 10 5.6
2020-Feb-18 11:47 045 3 gusting 7 5.6
2020-Feb-18 11:42 023 4 gusting 6 5.6
2020-Feb-18 11:37 068 5 gusting 7 5.6
2020-Feb-18 11:32 023 5 gusting 7 5.6
2020-Feb-18 11:27 023 4 gusting 7 5.6
2020-Feb-18 11:22 338 5 gusting 13 5.0
2020-Feb-18 11:17 023 5 gusting 13 5.0
2020-Feb-18 11:12 5.0
2020-Feb-18 11:07 090 4 gusting 7 5.0
2020-Feb-18 11:02 023 4 gusting 7 5.0
2020-Feb-18 10:57 045 3 gusting 7 5.0
2020-Feb-18 10:52 068 2 gusting 7 5.0
2020-Feb-18 10:47 023 2 gusting 7 5.0
2020-Feb-18 10:42 338 4 gusting 8 5.0
2020-Feb-18 10:37 090 4 gusting 8 5.0
2020-Feb-18 10:32 023 3 gusting 8 5.0
2020-Feb-18 10:27 023 3 gusting 6 5.0
2020-Feb-18 10:22 023 3 gusting 7 5.0
2020-Feb-18 10:17 5.0
2020-Feb-18 10:12 045 5 gusting 13 4.4
2020-Feb-18 10:07 045 6 gusting 13 4.4
2020-Feb-18 10:02 045 6 gusting 11 4.4
2020-Feb-18 09:57 023 6 gusting 9 4.4
2020-Feb-18 09:52 023 4 gusting 9 4.4
2020-Feb-18 09:47 045 5 gusting 9 4.4
2020-Feb-18 09:42 315 4 gusting 8 4.4
2020-Feb-18 09:37 023 4 gusting 8 4.4
2020-Feb-18 09:32 090 5 gusting 8 4.4
2020-Feb-18 09:27 023 5 gusting 7 4.4
2020-Feb-18 09:22 023 4 gusting 8 4.4
2020-Feb-18 09:17 4.4
2020-Feb-18 09:12 135 5 gusting 8 4.4
2020-Feb-18 09:07 023 5 gusting 13 4.4
2020-Feb-18 09:02 045 5 gusting 13 4.4
2020-Feb-18 08:57 023 6 gusting 11 4.4
2020-Feb-18 08:52 023 6 gusting 11 4.4
2020-Feb-18 08:47 023 6 gusting 7 3.9
2020-Feb-18 08:42 068 4 gusting 9 3.9
2020-Feb-18 08:37 068 4 gusting 9 3.9
2020-Feb-18 08:32 338 4 gusting 9 3.9
2020-Feb-18 08:27 045 4 gusting 7 3.9
2020-Feb-18 08:22 023 5 gusting 7 3.9
2020-Feb-18 08:17 023 5 gusting 7 3.9
2020-Feb-18 08:12 045 4 gusting 6 3.9
2020-Feb-18 08:07 023 4 gusting 6 3.9
2020-Feb-18 08:02 023 3 gusting 11 3.9
2020-Feb-18 07:57 045 4 gusting 11 3.9
2020-Feb-18 07:52 023 4 gusting 11 3.9
2020-Feb-18 07:47 023 5 gusting 9 3.9
2020-Feb-18 07:42 045 5 gusting 10 3.9
2020-Feb-18 07:37 045 5 gusting 10 3.9
2020-Feb-18 07:32 045 6 gusting 10 3.9
2020-Feb-18 07:27 023 5 gusting 8 3.9
2020-Feb-18 07:22 023 5 gusting 8 3.9
2020-Feb-18 07:17 023 6 gusting 8 3.9
2020-Feb-18 07:12 023 6 gusting 13 3.9
2020-Feb-18 07:07 315 6 gusting 13 3.9
2020-Feb-18 07:02 023 6 gusting 13 3.3
2020-Feb-18 06:57 3.9
2020-Feb-18 06:52 045 5 gusting 6 3.3
2020-Feb-18 06:47 045 4 gusting 7 3.3
2020-Feb-18 06:42 338 4 gusting 7 3.3
2020-Feb-18 06:37 023 4 gusting 7 3.3
2020-Feb-18 06:32 023 4 gusting 9 3.3
2020-Feb-18 06:27 338 5 gusting 9 3.3
2020-Feb-18 06:22 023 5 gusting 9 3.9
2020-Feb-18 06:17 023 4 gusting 7 3.3
2020-Feb-18 06:12 3.3
2020-Feb-18 06:07 023 5 gusting 9 3.9
2020-Feb-18 06:02 023 5 gusting 9 3.3
2020-Feb-18 05:57 3.9
2020-Feb-18 05:52 338 6 gusting 9 3.9
2020-Feb-18 05:47 158 5 gusting 9 3.9
2020-Feb-18 05:42 293 6 gusting 9 3.9
2020-Feb-18 05:37 023 6 gusting 9 3.9
2020-Feb-18 05:32 315 6 gusting 9 3.9
2020-Feb-18 05:27 3.9
2020-Feb-18 05:22 3.9
2020-Feb-18 05:17 338 6 gusting 9 3.9
2020-Feb-18 05:12 315 6 gusting 9 3.9
2020-Feb-18 05:07 338 6 gusting 9 3.9
2020-Feb-18 05:02 338 6 gusting 9 3.9
2020-Feb-18 04:57 315 5 gusting 9 3.9
2020-Feb-18 04:52 023 5 gusting 7 3.9
2020-Feb-18 04:47 338 5 gusting 7 3.9
2020-Feb-18 04:42 023 5 gusting 9 3.9
2020-Feb-18 04:37 315 5 gusting 9 3.9
2020-Feb-18 04:32 023 5 gusting 7 3.9
2020-Feb-18 04:27 203 6 gusting 9 3.9
2020-Feb-18 04:22 023 6 gusting 9 3.9
2020-Feb-18 04:17 3.9
2020-Feb-18 04:12 315 6 gusting 9 3.9
2020-Feb-18 04:07 315 6 gusting 9 3.9
2020-Feb-18 04:02 315 6 gusting 9 3.9
2020-Feb-18 03:57 315 6 gusting 9 3.9
2020-Feb-18 03:52 023 6 gusting 9 3.3
2020-Feb-18 03:47 3.3
2020-Feb-18 03:42 3.3
2020-Feb-18 03:37 338 6 gusting 10 3.3
2020-Feb-18 03:32 3.9
2020-Feb-18 03:27 315 5 gusting 7 3.3
2020-Feb-18 03:22 338 5 gusting 10 3.3
2020-Feb-18 03:17 3.3
2020-Feb-18 03:12 023 4 gusting 11 3.3
2020-Feb-18 03:07 338 4 gusting 8 3.3
2020-Feb-18 03:02 3.3
2020-Feb-18 02:57 3.3
2020-Feb-18 02:52 315 5 gusting 12 3.3
2020-Feb-18 02:47 315 5 gusting 6 3.3
2020-Feb-18 02:42 023 5 gusting 7 3.3
2020-Feb-18 02:37 338 5 gusting 9 3.3
2020-Feb-18 02:32 338 5 gusting 9 3.3
2020-Feb-18 02:27 315 5 gusting 12 3.3
2020-Feb-18 02:22 338 5 gusting 12 3.3
2020-Feb-18 02:17 293 5 gusting 12 3.3
2020-Feb-18 02:12 3.3
2020-Feb-18 02:07 158 5 gusting 7 3.3
2020-Feb-18 02:02 338 5 gusting 9 3.9
2020-Feb-18 01:57 338 5 gusting 9 3.9
2020-Feb-18 01:52 023 5 gusting 9 3.9
2020-Feb-18 01:47 315 5 gusting 7 3.9
2020-Feb-18 01:42 3.9
2020-Feb-18 01:37 338 5 gusting 7 3.9
2020-Feb-18 01:32 023 6 gusting 8 3.9
2020-Feb-18 01:27 338 5 gusting 8 3.9
2020-Feb-18 01:22 293 5 gusting 8 3.9
2020-Feb-18 01:17 023 5 gusting 4 3.9
2020-Feb-18 01:12 315 5 gusting 6 3.9
2020-Feb-18 01:07 315 4 gusting 6 3.9
2020-Feb-18 01:02 315 4 gusting 10 3.9
2020-Feb-18 00:57 023 5 gusting 10 3.9
2020-Feb-18 00:52 023 6 gusting 10 3.9
2020-Feb-18 00:47 315 5 gusting 7 3.9
2020-Feb-18 00:42 3.9
2020-Feb-18 00:37 023 5 gusting 7 3.9
2020-Feb-18 00:32 023 5 gusting 7 3.9
2020-Feb-18 00:27 338 5 gusting 12 3.9
2020-Feb-18 00:22 3.9
2020-Feb-18 00:17 023 6 gusting 12 3.9
2020-Feb-18 00:12 3.9
2020-Feb-18 00:07 023 5 gusting 9 3.9
2020-Feb-18 00:02 338 5 gusting 9 3.9
2020-Feb-17 23:57 3.9
2020-Feb-17 23:52 338 5 gusting 9 3.9
2020-Feb-17 23:47 045 5 gusting 8 3.9
2020-Feb-17 23:42 3.9
2020-Feb-17 23:37 338 6 gusting 9 3.9
2020-Feb-17 23:32 338 6 gusting 9 3.9
2020-Feb-17 23:27 315 6 gusting 9 3.9
2020-Feb-17 23:22 315 6 gusting 9 3.9
2020-Feb-17 23:17 023 5 gusting 9 3.9
2020-Feb-17 23:12 315 5 gusting 9 3.9
2020-Feb-17 23:07 113 5 gusting 7 3.9
2020-Feb-17 23:02 338 5 gusting 7 3.9
2020-Feb-17 22:57 3.9
2020-Feb-17 22:52 023 5 gusting 9 3.9
2020-Feb-17 22:47 338 5 gusting 10 3.9
2020-Feb-17 22:42 113 5 gusting 10 4.4
2020-Feb-17 22:37 023 5 gusting 6 4.4
2020-Feb-17 22:32 338 6 gusting 6 4.4
2020-Feb-17 22:27 023 5 gusting 6 4.4
2020-Feb-17 22:22 338 5 gusting 6 4.4
2020-Feb-17 22:17 023 5 gusting 6 4.4
2020-Feb-17 22:12 023 4 gusting 6 4.4
2020-Feb-17 22:06 023 4 gusting 6 4.4
2020-Feb-17 21:57 338 4 gusting 8 4.4
2020-Feb-17 21:52 4.4
2020-Feb-17 21:47 023 5 gusting 8 4.4
2020-Feb-17 21:42 4.4
2020-Feb-17 21:37 023 5 gusting 8 4.4
2020-Feb-17 21:32 023 4 gusting 8 4.4
2020-Feb-17 21:27 315 4 gusting 7 4.4
2020-Feb-17 21:22 315 5 gusting 6 4.4
2020-Feb-17 21:17 023 4 gusting 6 4.4
2020-Feb-17 21:12 023 4 gusting 8 3.9
2020-Feb-17 21:07 023 4 gusting 8 3.9
2020-Feb-17 21:02 338 4 gusting 8 3.9
2020-Feb-17 20:57 293 4 gusting 7 3.9
2020-Feb-17 20:52 045 4 gusting 7 3.9
2020-Feb-17 20:47 023 5 gusting 7 3.9
2020-Feb-17 20:42 338 5 gusting 6 3.9
2020-Feb-17 20:37 135 4 gusting 6 3.9
2020-Feb-17 20:32 023 4 gusting 6 3.9
2020-Feb-17 20:27 338 4 gusting 6 3.9
2020-Feb-17 20:22 3.9
2020-Feb-17 20:17 338 3 gusting 6 3.9
2020-Feb-17 20:12 338 3 gusting 6 3.9
2020-Feb-17 20:07 315 3 gusting 6 3.9
2020-Feb-17 20:02 338 4 gusting 7 3.3
2020-Feb-17 19:57 045 4 gusting 7 3.9
2020-Feb-17 19:52 338 4 gusting 6 3.3
2020-Feb-17 19:47 023 3 gusting 6 3.3
2020-Feb-17 19:42 315 3 gusting 3 3.3
2020-Feb-17 19:37 135 2 gusting 3 3.3
2020-Feb-17 19:32 023 2 gusting 6 3.3
2020-Feb-17 19:27 023 3 gusting 6 3.3
2020-Feb-17 19:22 3.3
2020-Feb-17 19:17 338 3 gusting 6 3.3
2020-Feb-17 19:12 113 3 gusting 6 3.3
2020-Feb-17 19:07 293 3 gusting 6 3.3
2020-Feb-17 19:02 045 4 gusting 5 3.3
2020-Feb-17 18:57 068 3 gusting 6 3.3
2020-Feb-17 18:52 3.3
2020-Feb-17 18:47 135 3 gusting 6 3.3
2020-Feb-17 18:42 338 4 gusting 5 3.3
2020-Feb-17 18:37 338 4 gusting 5 3.3
2020-Feb-17 18:32 315 3 gusting 5 3.3
2020-Feb-17 18:27 023 4 gusting 5 3.9
2020-Feb-17 18:22 023 4 gusting 6 3.3
2020-Feb-17 18:17 023 4 gusting 6 3.3
2020-Feb-17 18:12 023 3 gusting 5 3.3
2020-Feb-17 18:07 315 3 gusting 5 3.3
2020-Feb-17 18:02 023 3 gusting 6 3.9
2020-Feb-17 17:57 045 3 gusting 7 3.9
2020-Feb-17 17:52 338 3 gusting 7 3.3
2020-Feb-17 17:47 023 4 gusting 7 3.3
2020-Feb-17 17:42 3.3
2020-Feb-17 17:37 023 3 gusting 6 3.3
2020-Feb-17 17:32 270 4 gusting 5 3.3
2020-Feb-17 17:27 113 3 gusting 5 3.3
2020-Feb-17 17:22 023 3 gusting 11 3.3
2020-Feb-17 17:17 045 3 gusting 11 3.3
2020-Feb-17 17:12 315 3 gusting 11 3.3
2020-Feb-17 17:07 315 4 gusting 6 3.3
2020-Feb-17 17:02 3.3
2020-Feb-17 16:57 045 4 gusting 6 3.3
2020-Feb-17 16:52 315 3 gusting 4 3.3
2020-Feb-17 16:47 023 3 gusting 5 3.3
2020-Feb-17 16:42 023 2 gusting 7 3.3
2020-Feb-17 16:37 068 3 gusting 12 3.9
2020-Feb-17 16:32 023 4 gusting 12 3.3
2020-Feb-17 16:27 338 3 gusting 12 3.9
2020-Feb-17 16:22 315 3 gusting 5 3.3
2020-Feb-17 16:16 023 4 gusting 10 3.9
2020-Feb-17 16:02 338 4 gusting 9 3.9
2020-Feb-17 15:57 045 3 gusting 6 3.9
2020-Feb-17 15:52 158 3 gusting 10 3.9
2020-Feb-17 15:47 045 4 gusting 11 3.9
2020-Feb-17 15:42 315 4 gusting 11 3.9
2020-Feb-17 15:37 023 5 gusting 11 3.9
2020-Feb-17 15:32 090 4 gusting 7 3.9
2020-Feb-17 15:27 023 4 gusting 6 3.9
2020-Feb-17 15:22 315 3 gusting 6 3.9
2020-Feb-17 15:17 045 3 gusting 6 3.9
2020-Feb-17 15:12 023 3 gusting 7 3.9
2020-Feb-17 15:07 023 4 gusting 7 3.9
2020-Feb-17 15:02 068 4 gusting 7 3.9
2020-Feb-17 14:57 045 4 gusting 7 3.9
2020-Feb-17 14:52 068 4 gusting 5 3.9
2020-Feb-17 14:47 023 3 gusting 5 3.9
2020-Feb-17 14:42 315 3 gusting 5 3.9
2020-Feb-17 14:37 338 2 gusting 5 3.9
2020-Feb-17 14:32 023 2 gusting 5 3.9
2020-Feb-17 14:27 023 2 gusting 6 3.9
2020-Feb-17 14:22 023 3 gusting 9 3.9
2020-Feb-17 14:17 023 4 gusting 12 3.9
2020-Feb-17 14:12 023 4 gusting 12 3.9
2020-Feb-17 14:07 023 5 gusting 8 3.9
2020-Feb-17 14:02 045 5 gusting 8 3.9
2020-Feb-17 13:57 023 4 gusting 19 3.9
2020-Feb-17 13:52 248 6 gusting 19 3.9
2020-Feb-17 13:47 023 6 gusting 19 3.9
2020-Feb-17 13:42 045 6 gusting 14 3.9
2020-Feb-17 13:37 023 6 gusting 14 3.9
2020-Feb-17 13:32 023 7 gusting 12 3.9
2020-Feb-17 13:27 023 6 gusting 11 3.9
2020-Feb-17 13:22 023 6 gusting 11 3.9
2020-Feb-17 13:17 068 6 gusting 13 3.9
2020-Feb-17 13:12 023 6 gusting 13 3.9
2020-Feb-17 13:07 4.4
2020-Feb-17 13:02 045 7 gusting 11 4.4
2020-Feb-17 12:57 023 7 gusting 14 4.4
2020-Feb-17 12:52 4.4
2020-Feb-17 12:47 045 6 gusting 14 4.4
2020-Feb-17 12:42 023 6 gusting 9 4.4
2020-Feb-17 12:37 4.4
2020-Feb-17 12:32 023 5 gusting 11 4.4
2020-Feb-17 12:27 315 6 gusting 11 4.4
2020-Feb-17 12:22 045 6 gusting 11 4.4
2020-Feb-17 12:17 315 6 gusting 10 4.4
2020-Feb-17 12:12 023 5 gusting 8 4.4
2020-Feb-17 12:07 270 5 gusting 8 4.4
2020-Feb-17 12:02 023 5 gusting 9 4.4
2020-Feb-17 11:57 090 5 gusting 9 4.4
2020-Feb-17 11:52 338 6 gusting 13 4.4
2020-Feb-17 11:47 338 6 gusting 13 4.4
2020-Feb-17 11:42 045 5 gusting 13 4.4
2020-Feb-17 11:37 045 5 gusting 11 4.4
2020-Feb-17 11:32 338 6 gusting 10 4.4
2020-Feb-17 11:27 023 5 gusting 10 4.4
2020-Feb-17 11:22 023 6 gusting 10 4.4
2020-Feb-17 11:17 068 6 gusting 10 4.4
2020-Feb-17 11:12 023 6 gusting 6 4.4
2020-Feb-17 11:07 090 6 gusting 6 4.4
2020-Feb-17 11:02 023 5 gusting 7 4.4
2020-Feb-17 10:57 045 4 gusting 7 4.4
2020-Feb-17 10:52 045 4 gusting 8 4.4
2020-Feb-17 10:47 023 4 gusting 8 4.4
2020-Feb-17 10:42 4.4
2020-Feb-17 10:37 023 5 gusting 9 3.9
2020-Feb-17 10:32 315 4 gusting 9 3.9
2020-Feb-17 10:27 338 4 gusting 8 3.9
2020-Feb-17 10:22 315 3 gusting 6 3.9
2020-Feb-17 10:17 023 3 gusting 6 3.9
2020-Feb-17 10:12 023 4 gusting 9 3.9
2020-Feb-17 10:07 023 4 gusting 9 3.9
2020-Feb-17 10:02 023 4 gusting 9 3.9
2020-Feb-17 09:57 135 4 gusting 6 3.9
2020-Feb-17 09:52 3.9
2020-Feb-17 09:47 045 3 gusting 5 3.9
2020-Feb-17 09:42 023 3 gusting 5 3.9
2020-Feb-17 09:37 225 2 gusting 5 3.9
2020-Feb-17 09:32 023 3 gusting 5 3.9
2020-Feb-17 09:27 338 3 gusting 4 3.9
2020-Feb-17 09:22 023 2 gusting 6 3.9
2020-Feb-17 09:17 338 3 gusting 6 3.3
2020-Feb-17 09:12 023 3 gusting 6 3.9
2020-Feb-17 09:07 3.3
2020-Feb-17 09:02 023 2 gusting 4 3.3
2020-Feb-17 08:57 045 2 gusting 4 3.3
2020-Feb-17 08:52 045 2 gusting 6 3.3
2020-Feb-17 08:47 338 2 gusting 6 3.3
2020-Feb-17 08:42 068 2 gusting 6 3.3
2020-Feb-17 08:37 338 3 gusting 6 3.3
2020-Feb-17 08:32 203 3 gusting 6 3.3
2020-Feb-17 08:27 3.3
2020-Feb-17 08:22 338 3 gusting 7 3.3
2020-Feb-17 08:17 023 4 gusting 7 3.3
2020-Feb-17 08:12 3.9
2020-Feb-17 08:07 023 5 gusting 6 3.3
2020-Feb-17 08:02 023 5 gusting 8 3.3
2020-Feb-17 07:57 3.9
2020-Feb-17 07:52 045 4 gusting 8 3.3
2020-Feb-17 07:47 3.3
2020-Feb-17 07:42 3.9
2020-Feb-17 07:37 338 4 gusting 5 3.9
2020-Feb-17 07:32 338 4 gusting 7 3.9
2020-Feb-17 07:27 045 4 gusting 7 3.9
2020-Feb-17 07:22 023 5 gusting 7 3.9
2020-Feb-17 07:17 338 5 gusting 7 3.9
2020-Feb-17 07:12 338 4 gusting 7 3.9
2020-Feb-17 07:07 3.9
2020-Feb-17 07:02 338 3 gusting 6 3.9
2020-Feb-17 06:57 023 3 gusting 6 3.9
2020-Feb-17 06:52 338 4 gusting 6 3.9
2020-Feb-17 06:47 3.9
2020-Feb-17 06:42 315 3 gusting 6 3.9
2020-Feb-17 06:37 3.9
2020-Feb-17 06:32 023 3 gusting 9 4.4
2020-Feb-17 06:27 045 3 gusting 9 4.4
2020-Feb-17 06:22 338 5 gusting 9 4.4
2020-Feb-17 06:17 315 5 gusting 10 4.4
2020-Feb-17 06:12 023 5 gusting 10 4.4
2020-Feb-17 06:07 023 6 gusting 6 4.4
2020-Feb-17 06:02 023 6 gusting 9 4.4
2020-Feb-17 05:57 4.4
2020-Feb-17 05:52 338 6 gusting 9 4.4
2020-Feb-17 05:47 4.4
2020-Feb-17 05:42 338 5 gusting 9 4.4
2020-Feb-17 05:37 338 5 gusting 9 4.4
2020-Feb-17 05:32 4.4
2020-Feb-17 05:27 023 5 gusting 8 5.0
2020-Feb-17 05:22 315 5 gusting 8 5.0
2020-Feb-17 05:17 338 6 gusting 8 5.0
2020-Feb-17 05:12 023 5 gusting 6 5.0
2020-Feb-17 05:07 338 5 gusting 6 5.0
2020-Feb-17 05:02 5.0
2020-Feb-17 04:57 338 4 gusting 7 5.0
2020-Feb-17 04:52 023 4 gusting 7 4.4
2020-Feb-17 04:47 338 4 gusting 6 4.4
2020-Feb-17 04:42 315 4 gusting 6 4.4
2020-Feb-17 04:37 338 4 gusting 6 4.4
2020-Feb-17 04:32 4.4
2020-Feb-17 04:27 315 4 gusting 7 4.4
2020-Feb-17 04:22 338 4 gusting 7 4.4
2020-Feb-17 04:17 023 4 gusting 7 4.4
2020-Feb-17 04:12 338 5 gusting 8 4.4
2020-Feb-17 04:07 315 5 gusting 8 4.4
2020-Feb-17 04:02 315 5 gusting 8 4.4
2020-Feb-17 03:57 023 5 gusting 7 4.4
2020-Feb-17 03:52 023 4 gusting 8 4.4
2020-Feb-17 03:47 045 4 gusting 8 4.4
2020-Feb-17 03:42 338 5 gusting 8 4.4
2020-Feb-17 03:37 4.4
2020-Feb-17 03:32 338 4 gusting 7 4.4
2020-Feb-17 03:27 338 4 gusting 6 4.4
2020-Feb-17 03:22 023 4 gusting 11 4.4
2020-Feb-17 03:17 315 4 gusting 11 4.4
2020-Feb-17 03:12 023 3 gusting 8 4.4
2020-Feb-17 03:07 315 4 gusting 7 3.9
2020-Feb-17 03:02 113 4 gusting 7 4.4
2020-Feb-17 02:57 338 3 gusting 6 3.9
2020-Feb-17 02:52 045 3 gusting 6 3.9
2020-Feb-17 02:47 315 3 gusting 6 3.9
2020-Feb-17 02:42 338 3 gusting 7 3.9
2020-Feb-17 02:37 338 3 gusting 7 3.9
2020-Feb-17 02:32 023 3 gusting 6 3.9
2020-Feb-17 02:27 3.9
2020-Feb-17 02:22 338 3 gusting 6 3.9
2020-Feb-17 02:17 225 4 gusting 6 3.9
2020-Feb-17 02:12 248 5 gusting 7 3.9
2020-Feb-17 02:07 338 5 gusting 8 3.9
2020-Feb-17 02:02 023 5 gusting 8 3.9
2020-Feb-17 01:57 045 5 gusting 8 3.9
2020-Feb-17 01:52 3.9
2020-Feb-17 01:47 315 6 gusting 10 3.9
2020-Feb-17 01:42 338 6 gusting 10 3.9
2020-Feb-17 01:37 3.9
2020-Feb-17 01:32 023 5 gusting 8 3.9
2020-Feb-17 01:27 338 5 gusting 11 3.9
2020-Feb-17 01:22 270 6 gusting 11 3.9
2020-Feb-17 01:17 270 6 gusting 11 3.9
2020-Feb-17 01:12 023 6 gusting 7 3.9
2020-Feb-17 01:07 023 6 gusting 12 3.9
2020-Feb-17 01:02 023 6 gusting 12 3.9